Terminal Aerodrome Forecast
Issued by NWS Charleston, WV

Current Version | Previous Version | Graphics & Text | Print | Product List | Glossary On
Versions: 1 2 3 4 5 6 7 8 9 10 11 12 13 14 15 16 17 18 19 20 21 22
000
FTUS41 KRLX 181100
TAFPKB
TAF
KPKB 181140Z 1812/1912 36003KT P6SM SKC
     FM181300 00000KT 4SM BR FEW001
     FM181400 00000KT P6SM SKC
     FM181600 VRB03KT P6SM FEW040
     FM182200 VRB03KT P6SM FEW150
     FM191000 00000KT 3SM BR SKC=

USA.gov is the U.S. government's official web portal to all federal, state and local government web resources and services.